DCS642 EDAZ-EKSB

Flight info

Callsign DCS642
Flight time 0h 42m
Altitude 36000
Route BOLBO2N BOLBO DCT LUWIL DCT KESUR
Aircraft CL60/M-SADE3FGHIJ3J4J7P2RWXY/HB1D1

Departure

Time 2026-05-07 08:20
Airport Schönhagen Airfield (EDAZ)

Arrival

Time 2026-05-07 09:02
Airport Sønderborg Airport (EKSB)
Time Latitude Longitude Altitude Speed Heading
2026-05-07 08:04 52.20633 13.15110 143 ft 0 kts 360°
2026-05-07 08:16 52.20634 13.15110 143 ft 0 kts 360°
2026-05-07 08:16 52.20642 13.15098 143 ft 3 kts 272°
2026-05-07 08:16 52.20606 13.15051 142 ft 9 kts 209°
2026-05-07 08:16 52.20556 13.15045 142 ft 8 kts 161°
2026-05-07 08:17 52.20502 13.15044 142 ft 3 kts 207°
2026-05-07 08:17 52.20487 13.15030 142 ft 0 kts 212°
2026-05-07 08:17 52.20486 13.15028 142 ft 2 kts 212°
2026-05-07 08:18 52.20448 13.14990 141 ft 7 kts 212°
2026-05-07 08:18 52.20404 13.14967 141 ft 6 kts 165°
2026-05-07 08:18 52.20348 13.14949 141 ft 9 kts 178°
2026-05-07 08:18 52.20266 13.14970 141 ft 13 kts 167°
2026-05-07 08:19 52.20233 13.14993 141 ft 0 kts 83°
2026-05-07 08:19 52.20234 13.14995 141 ft 0 kts 76°
2026-05-07 08:19 52.20237 13.15017 141 ft 22 kts 75°
2026-05-07 08:19 52.20378 13.15926 145 ft 134 kts 75°
2026-05-07 08:20 52.20628 13.17688 753 ft 174 kts 73°
2026-05-07 08:20 52.20758 13.19584 1731 ft 173 kts 84°
2026-05-07 08:20 52.20740 13.21488 2017 ft 163 kts 87°
2026-05-07 08:20 52.20657 13.23328 2008 ft 160 kts 99°
2026-05-07 08:21 52.20117 13.24959 2001 ft 170 kts 128°
2026-05-07 08:21 52.19084 13.25977 2010 ft 177 kts 152°
2026-05-07 08:21 52.17923 13.26709 2027 ft 179 kts 155°
2026-05-07 08:21 52.16680 13.26925 2023 ft 187 kts 189°
2026-05-07 08:22 52.15332 13.26144 1982 ft 219 kts 201°
2026-05-07 08:22 52.13917 13.25095 1995 ft 234 kts 208°
2026-05-07 08:22 52.12753 13.23072 2004 ft 265 kts 245°
2026-05-07 08:22 52.12520 13.20044 3111 ft 281 kts 285°
2026-05-07 08:23 52.13427 13.17476 5091 ft 269 kts 318°
2026-05-07 08:23 52.14833 13.15585 6753 ft 272 kts 324°
2026-05-07 08:23 52.16296 13.13739 8388 ft 275 kts 324°
2026-05-07 08:23 52.17802 13.11829 9854 ft 284 kts 324°
2026-05-07 08:24 52.19380 13.09824 11047 ft 301 kts 323°
2026-05-07 08:24 52.21073 13.07667 12123 ft 320 kts 323°
2026-05-07 08:24 52.22830 13.05421 13341 ft 329 kts 323°
2026-05-07 08:24 52.24640 13.03104 14489 ft 339 kts 322°
2026-05-07 08:25 52.26505 13.00708 15577 ft 348 kts 322°
2026-05-07 08:25 52.28399 12.98274 16783 ft 352 kts 321°
2026-05-07 08:25 52.30307 12.95820 17907 ft 354 kts 321°
2026-05-07 08:25 52.32263 12.93298 18662 ft 365 kts 321°
2026-05-07 08:26 52.36291 12.88094 20494 ft 374 kts 320°
2026-05-07 08:26 52.38344 12.85434 21279 ft 381 kts 321°
2026-05-07 08:26 52.40436 12.82724 22013 ft 388 kts 321°
2026-05-07 08:27 52.42550 12.79979 22864 ft 390 kts 320°
2026-05-07 08:27 52.44678 12.77214 23652 ft 395 kts 320°
2026-05-07 08:27 52.46842 12.74399 24388 ft 400 kts 321°
2026-05-07 08:27 52.49019 12.71563 25166 ft 404 kts 320°
2026-05-07 08:28 52.51225 12.68684 25860 ft 409 kts 321°
2026-05-07 08:28 52.53464 12.65759 26569 ft 412 kts 320°
2026-05-07 08:28 52.55724 12.62802 27249 ft 416 kts 320°
2026-05-07 08:28 52.58014 12.59801 27846 ft 422 kts 320°
2026-05-07 08:29 52.60342 12.56747 28414 ft 427 kts 320°
2026-05-07 08:29 52.62692 12.53660 28996 ft 431 kts 320°
2026-05-07 08:29 52.65060 12.50544 29576 ft 436 kts 320°
2026-05-07 08:29 52.67447 12.47399 30167 ft 439 kts 320°
2026-05-07 08:30 52.69845 12.44235 30728 ft 443 kts 320°
2026-05-07 08:30 52.72267 12.41033 31294 ft 445 kts 320°
2026-05-07 08:30 52.74685 12.37835 31912 ft 443 kts 320°
2026-05-07 08:30 52.77074 12.34670 32568 ft 440 kts 318°
2026-05-07 08:31 52.79470 12.31490 33155 ft 436 kts 318°
2026-05-07 08:31 52.81835 12.28348 33675 ft 433 kts 318°
2026-05-07 08:31 52.84174 12.25235 34118 ft 431 kts 318°
2026-05-07 08:31 52.86505 12.22128 34550 ft 430 kts 318°
2026-05-07 08:32 52.88825 12.19030 34954 ft 429 kts 318°
2026-05-07 08:32 52.91155 12.15914 35347 ft 429 kts 318°
2026-05-07 08:32 52.93466 12.12821 35710 ft 428 kts 318°
2026-05-07 08:32 52.95793 12.09700 35898 ft 434 kts 318°
2026-05-07 08:33 53.00586 12.03253 35976 ft 452 kts 318°
2026-05-07 08:33 53.05555 11.96553 35989 ft 467 kts 318°
2026-05-07 08:34 53.10654 11.89660 35986 ft 475 kts 319°
2026-05-07 08:34 53.15788 11.82699 36000 ft 474 kts 319°
2026-05-07 08:35 53.20894 11.75755 36000 ft 473 kts 319°
2026-05-07 08:35 53.25980 11.68814 35997 ft 472 kts 319°
2026-05-07 08:36 53.31052 11.61869 36007 ft 471 kts 319°
2026-05-07 08:36 53.36123 11.54904 36011 ft 471 kts 319°
2026-05-07 08:37 53.41183 11.47934 36010 ft 470 kts 319°
2026-05-07 08:37 53.46560 11.41674 36010 ft 472 kts 326°
2026-05-07 08:38 53.52101 11.35766 36010 ft 472 kts 326°
2026-05-07 08:38 53.57633 11.29842 35651 ft 464 kts 325°
2026-05-07 08:39 53.60347 11.26928 35189 ft 458 kts 325°
2026-05-07 08:39 53.63024 11.24047 34704 ft 454 kts 325°
2026-05-07 08:39 53.65662 11.21204 34197 ft 450 kts 325°
2026-05-07 08:39 53.68288 11.18368 33669 ft 447 kts 326°
2026-05-07 08:40 53.70885 11.15559 33100 ft 444 kts 326°
2026-05-07 08:40 53.73466 11.12762 32492 ft 440 kts 326°
2026-05-07 08:40 53.76032 11.09979 31913 ft 435 kts 326°
2026-05-07 08:40 53.78550 11.07242 31361 ft 429 kts 326°
2026-05-07 08:41 53.81054 11.04516 30806 ft 430 kts 326°
2026-05-07 08:41 53.83566 11.01777 30304 ft 432 kts 326°
2026-05-07 08:41 53.86095 10.99014 29765 ft 434 kts 326°
2026-05-07 08:41 53.88638 10.96233 29244 ft 436 kts 326°
2026-05-07 08:42 53.91181 10.93446 28719 ft 436 kts 326°
2026-05-07 08:42 53.93718 10.90663 28190 ft 435 kts 326°
2026-05-07 08:42 53.96241 10.87891 27660 ft 432 kts 326°
2026-05-07 08:42 53.98744 10.85138 27141 ft 428 kts 325°
2026-05-07 08:43 54.01226 10.82403 26622 ft 424 kts 325°
2026-05-07 08:43 54.03694 10.79681 26109 ft 421 kts 325°
2026-05-07 08:43 54.06135 10.76983 25599 ft 418 kts 325°
2026-05-07 08:43 54.08562 10.74297 25090 ft 415 kts 325°
2026-05-07 08:44 54.10966 10.71633 24591 ft 412 kts 325°
2026-05-07 08:44 54.13385 10.68947 24089 ft 408 kts 325°
2026-05-07 08:44 54.15760 10.66307 23590 ft 406 kts 325°
2026-05-07 08:44 54.18117 10.63684 23099 ft 403 kts 325°
2026-05-07 08:45 54.20454 10.61080 22612 ft 399 kts 325°
2026-05-07 08:45 54.22762 10.58503 22132 ft 396 kts 325°
2026-05-07 08:45 54.25052 10.55944 21652 ft 392 kts 325°
2026-05-07 08:45 54.27321 10.53403 21179 ft 389 kts 325°
2026-05-07 08:46 54.29574 10.50879 20706 ft 386 kts 325°
2026-05-07 08:46 54.31806 10.48373 20250 ft 383 kts 325°
2026-05-07 08:46 54.34023 10.45881 19786 ft 380 kts 325°
2026-05-07 08:46 54.36223 10.43406 19326 ft 377 kts 326°
2026-05-07 08:47 54.38403 10.40950 18870 ft 375 kts 326°
2026-05-07 08:47 54.40565 10.38510 18425 ft 372 kts 326°
2026-05-07 08:47 54.42717 10.36079 17970 ft 369 kts 326°
2026-05-07 08:47 54.44853 10.33663 17524 ft 367 kts 325°
2026-05-07 08:48 54.46981 10.31252 17084 ft 364 kts 325°
2026-05-07 08:48 54.49082 10.28869 16642 ft 362 kts 325°
2026-05-07 08:48 54.51165 10.26504 16190 ft 359 kts 326°
2026-05-07 08:48 54.53237 10.24148 15775 ft 357 kts 326°
2026-05-07 08:49 54.55299 10.21800 15336 ft 354 kts 326°
2026-05-07 08:49 54.57344 10.19469 14902 ft 352 kts 326°
2026-05-07 08:49 54.59378 10.17148 14481 ft 349 kts 326°
2026-05-07 08:49 54.61395 10.14844 14067 ft 347 kts 326°
2026-05-07 08:50 54.63396 10.12556 13622 ft 344 kts 326°
2026-05-07 08:50 54.65385 10.10279 13231 ft 343 kts 326°
2026-05-07 08:50 54.67357 10.08016 12786 ft 337 kts 326°
2026-05-07 08:50 54.69281 10.05810 12407 ft 329 kts 326°
2026-05-07 08:51 54.71154 10.03654 12010 ft 320 kts 326°
2026-05-07 08:51 54.72980 10.01553 11632 ft 312 kts 326°
2026-05-07 08:51 54.74756 9.99508 11262 ft 304 kts 327°
2026-05-07 08:51 54.76491 9.97507 10905 ft 296 kts 326°
2026-05-07 08:52 54.78190 9.95547 10543 ft 290 kts 326°
2026-05-07 08:52 54.79851 9.93627 10192 ft 284 kts 326°
2026-05-07 08:52 54.81477 9.91745 9849 ft 279 kts 326°
2026-05-07 08:52 54.83084 9.89885 9521 ft 278 kts 327°
2026-05-07 08:53 54.84601 9.87822 9167 ft 279 kts 315°
2026-05-07 08:53 54.85907 9.85355 8830 ft 276 kts 313°
2026-05-07 08:53 54.87200 9.82885 8485 ft 277 kts 313°
2026-05-07 08:53 54.88496 9.80416 8155 ft 276 kts 313°
2026-05-07 08:54 54.89781 9.77966 7823 ft 275 kts 313°
2026-05-07 08:54 54.91065 9.75518 7489 ft 274 kts 314°
2026-05-07 08:54 54.92345 9.73075 7153 ft 273 kts 314°
2026-05-07 08:54 54.93623 9.70634 6827 ft 270 kts 313°
2026-05-07 08:55 54.94878 9.68235 6500 ft 266 kts 314°
2026-05-07 08:55 54.96116 9.65866 6189 ft 261 kts 314°
2026-05-07 08:55 54.97337 9.63531 5761 ft 261 kts 314°
2026-05-07 08:55 54.98548 9.61212 5480 ft 254 kts 313°
2026-05-07 08:56 54.99724 9.58954 5159 ft 249 kts 314°
2026-05-07 08:56 55.00872 9.56752 4855 ft 243 kts 314°
2026-05-07 08:56 55.01992 9.54603 4566 ft 238 kts 313°
2026-05-07 08:56 55.03218 9.52708 4237 ft 233 kts 333°
2026-05-07 08:57 55.04771 9.51923 3703 ft 235 kts 359°
2026-05-07 08:57 55.06358 9.52369 3317 ft 232 kts 23°
2026-05-07 08:57 55.07717 9.53929 2634 ft 243 kts 48°
2026-05-07 08:57 55.08541 9.56469 2101 ft 241 kts 77°
2026-05-07 08:58 55.08571 9.59233 1999 ft 218 kts 103°
2026-05-07 08:58 55.07979 9.61520 2057 ft 200 kts 123°
2026-05-07 08:58 55.07065 9.63269 2031 ft 192 kts 137°
2026-05-07 08:58 55.06069 9.64755 2014 ft 185 kts 139°
2026-05-07 08:59 55.05109 9.66184 1971 ft 178 kts 138°
2026-05-07 08:59 55.04185 9.67572 1956 ft 169 kts 138°
2026-05-07 08:59 55.03312 9.68881 1714 ft 159 kts 137°
2026-05-07 08:59 55.02535 9.70039 1554 ft 135 kts 137°
2026-05-07 09:00 55.01848 9.71070 1363 ft 129 kts 137°
2026-05-07 09:00 55.01172 9.72088 1174 ft 128 kts 138°
2026-05-07 09:00 55.00501 9.73093 998 ft 127 kts 137°
2026-05-07 09:00 54.99832 9.74096 813 ft 129 kts 137°
2026-05-07 09:01 54.99141 9.75134 643 ft 131 kts 137°
2026-05-07 09:01 54.98451 9.76166 466 ft 130 kts 137°
2026-05-07 09:01 54.97772 9.77202 294 ft 129 kts 139°
2026-05-07 09:01 54.97090 9.78198 79 ft 126 kts 140°
2026-05-07 09:02 54.96473 9.79124 26 ft 93 kts 142°
2026-05-07 09:02 54.96152 9.79597 26 ft 32 kts 140°
2026-05-07 09:02 54.96034 9.79768 26 ft 13 kts 134°
2026-05-07 09:02 54.96065 9.79879 26 ft 12 kts
2026-05-07 09:03 54.96106 9.79794 26 ft 12 kts 259°
2026-05-07 09:03 54.96136 9.79623 26 ft 19 kts 320°
2026-05-07 09:03 54.96257 9.79441 26 ft 26 kts 321°
2026-05-07 09:03 54.96413 9.79211 26 ft 32 kts 319°
2026-05-07 09:04 54.96489 9.79074 25 ft 13 kts 268°
2026-05-07 09:04 54.96429 9.78926 25 ft 14 kts 229°
2026-05-07 09:04 54.96374 9.78807 26 ft 7 kts 264°
2026-05-07 09:04 54.96405 9.78752 25 ft 6 kts 11°
2026-05-07 09:05 54.96408 9.78771 25 ft 0 kts 145°